STARLINK-11144, 59955

Orbit data source: Space-Track

STARLINK-11144, 59955 is a payload satellite owned by SpaceX/Seattle (US) in LEO that was launched on Wed, 05 Jun 2024 UTC via an FALCON 9 launch vehicle from the Air Force Eastern Test Range (AFETR). Payload-class satellites include a variety of spacecraft equipped with specific instruments for various scientific and technological missions. These include communications satellites like Starlink; space stations such as the ISS; scientific satellites like the Hubble; Earth observation satellites from companies like Planet Labs, Umbra, and HawkEye 360; GPS; miniature CubeSats for education and research; and military/defense satellites.

Loading next visibility...
Identifier
59955, 2024-107L
Orbit
LEO
Last TLE update
14 hours ago
Origin
Manufacturer
SpaceX/Seattle
Mission
Operational spacecraft
Bus & Motor
STARLINK V2M, Unknown motor
Mass
730 kg wet, ~700 kg dry
Launch date (UTC)
2024-06-05 (11 months ago)
Launch vehicle
FALCON 9
Launch site
Air Force Eastern Test Range (AFETR)
Object type
Payload
Rocket body
Debris
Shape & HBR
Unknown
Radar Cross Section
Large (>1 m²)

Expand to show TLE details & history

TLE from 14 hours ago
0 STARLINK-11144
1 59955U 24107L   25128.80898427  .00000068  00000-0  54013-5 0  9993
2 59955  53.1596 314.0195 0000131 353.7916   6.3100 15.69747906 54324
Epoch: 2025-05-08T19:24Z
Definitive object data (Epoch: 2025-05-08T19:24:56.24Z)
Latitude
-0.00007°
Longitude
155.91096°
Altitude
360.446 km
Speed
7.694 km/s
True Right ascension
20h 56m 04s
True Declination
0° 00' 00"
Sunlit
Object was in daylight at TLE epoch
Visualization TLE readout
Latitude
48.28757°
Longitude
-83.71076°
Altitude
365.068 km
Speed
7.696 km/s
Apparent Right ascension
05h 23m 46s
Apparent Declination
5° 44' 53"
Sunlit
Object is in daylight
Visualization observer readout
Local Sidereal Time
17:47:47
Azimuth
8.319° NNE
Elevation
-44.001°
Doppler factor
1
Orbital elements
Apogee altitude
359.967 km
Perigee altitude
359.791 km
Semi-major axis
6,738.016 km
Eccentricity
0.0000131
Inclination
53.1596°
RAAN
314.0195°
Arg. of periapsis
353.7916°
True anomaly
6.31016°
Mean anomaly
6.31°
Eccentric anomaly
6.31008°
Mean motion
3.92415 °/min
BSTAR
0.0000054013
Orbital period
91.74 mins
Loading maneuver chart data...
Loading SW <> Apogee altitude chart data...
Loading historical data...
Loading historical data...
Loading historical data...
Loading historical data...
Loading historical data...
Loading historical data...
Loading historical data...

STARLINK-11144 Visibility forecast

Observer location: undefined°, undefined°

Span
Click to sort rows by Start time (UTC) header in descending order
Start Az.
Max El. time (UTC)
Max El. Az.
Max El.
End time (UTC)
End Az.
4 mins2025-05-09 21:54:25.948Z302.682° NW2025-05-09 21:56:25.948Z167.208° S41.19°2025-05-09 21:58:25.948Z138.308° SSE
|